This demonstration page uses our WeatherBlox Daily Observations layout. Learn more.

Left ArrowRight Arrow

44.89941, -97.11507

Hourly Observations for June 25, 2016

Temp ( °F °C ) Dew Point ( °F °C ) Humidity (%) Winds ( mph kmh ) Pressure ( in mb ) Visibility ( mi km ) Precip ( " mm )
12:53 am 00:53 Clear 78 25.6 71 21.7 79 79 S 16 26 29.71 1006 10 16 0.00 0.00
1:53 am 01:53 Clear 79 26.1 68 20 69 69 S 20 31 29.70 1006 10 16 0.00 0.00
2:53 am 02:53 Clear 79 26.1 67 19.4 67 67 S 20 31 29.68 1005 10 16 0.00 0.00
3:53 am 03:53 Clear 77 25 67 19.4 71 71 S 13 20 29.68 1005 10 16 0.00 0.00
4:53 am 04:53 Clear 77 25 67 19.4 71 71 S 15 24 29.66 1004 10 16 0.00 0.00
5:53 am 05:53 Sunny 75 23.9 68 20 79 79 S 14 22 29.65 1004 10 16 0.00 0.00
6:53 am 06:53 Sunny 76 24.4 69 20.6 79 79 S 16 26 29.65 1004 10 16 0.00 0.00
7:53 am 07:53 Sunny 78 25.6 69 20.6 74 74 S 18 30 29.68 1005 10 16 0.00 0.00
8:53 am 08:53 Sunny 81 27.2 70 21.1 69 69 SSW 16 26 29.68 1005 10 16 0.00 0.00
9:53 am 09:53 Sunny 82 27.8 70 21.1 67 67 SSW 17 28 29.67 1005 10 16 0.00 0.00
10:53 am 10:53 Sunny 85 29.4 70 21.1 61 61 SW 20 31 29.67 1005 10 16 0.00 0.00
11:53 am 11:53 Mostly Sunny 85 29.4 67 19.4 55 55 W 20 31 29.70 1006 10 16 0.00 0.00
12:53 pm 12:53 Sunny 84 28.9 65 18.3 53 53 W 15 24 29.72 1007 10 16 0.00 0.00
1:53 pm 13:53 Sunny 83 28.3 65 18.3 55 55 NW 20 31 29.74 1007 10 16 0.00 0.00
2:53 pm 14:53 Partly Cloudy 80 26.7 62 16.7 54 54 WNW 18 30 29.77 1008 10 16 0.00 0.00
3:53 pm 15:53 Sunny 80 26.7 58 14.4 47 47 NW 16 26 29.78 1009 10 16 0.00 0.00
4:53 pm 16:53 Sunny 81 27.2 58 14.4 45 45 NW 10 17 29.81 1009 10 16 0.00 0.00
5:53 pm 17:53 Sunny 84 28.9 53 11.7 34 34 W 13 20 29.81 1009 10 16 0.00 0.00
6:53 pm 18:53 Sunny 84 28.9 45 7.2 25 25 WNW 12 19 29.81 1010 10 16 0.00 0.00
7:53 pm 19:53 Sunny 82 27.8 44 6.7 26 26 WNW 16 26 29.82 1010 10 16 0.00 0.00
8:53 pm 20:53 Sunny 78 25.6 45 7.2 31 31 WNW 10 17 29.83 1010 10 16 0.00 0.00
9:53 pm 21:53 Clear 69 20.6 46 7.8 44 44 W 7 11 29.87 1011 10 16 0.00 0.00
10:53 pm 22:53 Clear 64 17.8 46 7.8 52 52 WSW 8 13 29.90 1013 10 16 0.00 0.00
11:53 pm 23:53 Clear 65 18.3 45 7.2 49 49 W 7 11 29.92 1013 10 16 0.00 0.00

Powered by AerisWeather